EN

Hourly Weather Am Rain

Today, 22 January, Friday

Time Temperature Precipitation Wind Pressure Humidity
00:00 +3°C° 1.1 mm 2 mps 702 mmHg 93%
01:00 +3°C° 1.1 mm 2 mps 702 mmHg 95%
02:00 +3°C° 0.7 mm 2 mps 701 mmHg 93%
03:00 +2°C° 0.7 mm 3 mps 701 mmHg 92%
04:00 +2°C° 0.7 mm 3 mps 701 mmHg 91%
05:00 +2°C° 0.1 mm 3 mps 700 mmHg 91%
06:00 +2°C° 0.1 mm 3 mps 700 mmHg 91%
07:00 +2°C° 0.1 mm 3 mps 700 mmHg 91%
08:00 +4°C° 0 mm 2 mps 700 mmHg 91%
09:00 +4°C° 0 mm 2 mps 699 mmHg 90%
10:00 +5°C° 0 mm 2 mps 699 mmHg 90%
11:00 +6°C° 0 mm 2 mps 699 mmHg 88%
12:00 +8°C° 0 mm 1 mps 698 mmHg 86%
13:00 +8°C° 0 mm 1 mps 698 mmHg 84%
14:00 +8°C° 0.1 mm 1 mps 697 mmHg 87%
15:00 +7°C° 0.1 mm 1 mps 697 mmHg 90%
16:00 +6°C° 0.1 mm 1 mps 696 mmHg 93%
17:00 +4°C° 0.1 mm 0 mps 696 mmHg 93%
18:00 +4°C° 0.1 mm 0 mps 697 mmHg 94%
19:00 +3°C° 0.1 mm 0 mps 697 mmHg 94%
20:00 +4°C° 1.3 mm 1 mps 697 mmHg 95%
21:00 +4°C° 1.3 mm 1 mps 697 mmHg 96%
22:00 +4°C° 1.3 mm 1 mps 698 mmHg 98%
23:00 +2°C° 2 mm 2 mps 698 mmHg 98%

Tomorrow, 23 January, Saturday

Time Temperature Precipitation Wind Pressure Humidity
00:00 +1°C° 2 mm 3 mps 699 mmHg 97%
01:00 -1°C° 2 mm 4 mps 699 mmHg 97%
02:00 -1°C° 1 mm 4 mps 700 mmHg 97%
03:00 0°C° 1 mm 3 mps 700 mmHg 97%
04:00 -1°C° 1 mm 3 mps 701 mmHg 97%
05:00 -1°C° 0.2 mm 2 mps 701 mmHg 97%
06:00 -1°C° 0.2 mm 2 mps 701 mmHg 96%
07:00 +1°C° 0.2 mm 1 mps 701 mmHg 95%
08:00 +1°C° 0 mm 1 mps 701 mmHg 94%
09:00 +2°C° 0 mm 1 mps 701 mmHg 93%
10:00 +2°C° 0 mm 1 mps 701 mmHg 91%
11:00 +2°C° 0 mm 1 mps 701 mmHg 89%
12:00 +3°C° 0 mm 1 mps 700 mmHg 87%
13:00 +4°C° 0 mm 1 mps 700 mmHg 85%
14:00 +4°C° 0 mm 1 mps 700 mmHg 87%
15:00 +4°C° 0 mm 1 mps 699 mmHg 89%
16:00 +3°C° 0 mm 1 mps 699 mmHg 90%
17:00 +2°C° 0 mm 1 mps 699 mmHg 91%
18:00 +1°C° 0 mm 1 mps 699 mmHg 91%
19:00 0°C° 0 mm 1 mps 699 mmHg 92%
20:00 0°C° 0.1 mm 1 mps 699 mmHg 93%
21:00 0°C° 0.1 mm 1 mps 699 mmHg 94%
22:00 +1°C° 0.1 mm 1 mps 700 mmHg 95%
23:00 -1°C° 0.4 mm 2 mps 700 mmHg 96%

Day after tomorrow, 24 January, Sunday

Time Temperature Precipitation Wind Pressure Humidity
00:00 -1°C° 0.4 mm 2 mps 700 mmHg 96%
01:00 -1°C° 0.4 mm 3 mps 700 mmHg 97%
02:00 -2°C° 0.3 mm 3 mps 701 mmHg 96%
03:00 -2°C° 0.3 mm 3 mps 701 mmHg 95%
04:00 -2°C° 0.3 mm 3 mps 701 mmHg 94%
05:00 -2°C° 0.3 mm 3 mps 702 mmHg 94%
06:00 -4°C° 0.3 mm 3 mps 702 mmHg 95%
07:00 -3°C° 0.3 mm 2 mps 703 mmHg 95%
08:00 -3°C° 0.1 mm 2 mps 703 mmHg 93%
09:00 -2°C° 0.1 mm 2 mps 704 mmHg 92%
10:00 0°C° 0.1 mm 1 mps 704 mmHg 90%
11:00 +1°C° 0 mm 1 mps 704 mmHg 86%
12:00 +1°C° 0 mm 1 mps 703 mmHg 82%
13:00 +2°C° 0 mm 1 mps 703 mmHg 78%
14:00 +2°C° 0 mm 1 mps 703 mmHg 81%
15:00 +2°C° 0 mm 1 mps 702 mmHg 83%
16:00 +2°C° 0 mm 1 mps 702 mmHg 86%
17:00 +1°C° 0 mm 1 mps 702 mmHg 88%
18:00 +1°C° 0 mm 1 mps 702 mmHg 90%
19:00 -2°C° 0 mm 2 mps 703 mmHg 93%
20:00 -2°C° 0.2 mm 2 mps 703 mmHg 93%
21:00 -2°C° 0.2 mm 2 mps 703 mmHg 94%
22:00 -2°C° 0.2 mm 2 mps 703 mmHg 94%
23:00 -2°C° 0.7 mm 2 mps 703 mmHg 95%

25 January, Monday

Time Temperature Precipitation Wind Pressure Humidity
00:00 -3°C° 0.7 mm 2 mps 703 mmHg 95%
01:00 -3°C° 0.7 mm 2 mps 703 mmHg 96%
02:00 -4°C° 0.5 mm 3 mps 704 mmHg 95%
03:00 -4°C° 0.5 mm 3 mps 704 mmHg 95%
04:00 -4°C° 0.5 mm 3 mps 705 mmHg 94%
05:00 -4°C° 0.2 mm 4 mps 706 mmHg 94%
06:00 -4°C° 0.2 mm 4 mps 706 mmHg 93%
07:00 -5°C° 0.2 mm 5 mps 707 mmHg 93%
08:00 -5°C° 0.2 mm 5 mps 708 mmHg 92%
09:00 -5°C° 0.2 mm 5 mps 709 mmHg 92%
10:00 -5°C° 0.2 mm 5 mps 710 mmHg 91%
11:00 -4°C° 0.1 mm 5 mps 710 mmHg 88%
12:00 -4°C° 0.1 mm 5 mps 710 mmHg 84%
13:00 -2°C° 0.1 mm 5 mps 711 mmHg 81%
14:00 -2°C° 0.2 mm 5 mps 711 mmHg 84%
15:00 -2°C° 0.2 mm 5 mps 711 mmHg 87%
16:00 -2°C° 0.2 mm 5 mps 711 mmHg 90%
17:00 -3°C° 0.2 mm 4 mps 711 mmHg 91%
18:00 -3°C° 0.2 mm 4 mps 712 mmHg 91%
19:00 -3°C° 0.2 mm 4 mps 712 mmHg 91%
20:00 -3°C° 0.2 mm 4 mps 713 mmHg 92%
21:00 -3°C° 0.2 mm 4 mps 713 mmHg 93%
22:00 -3°C° 0.2 mm 4 mps 713 mmHg 93%
23:00 -3°C° 0.2 mm 4 mps 714 mmHg 94%

26 January, Tuesday

Time Temperature Precipitation Wind Pressure Humidity
00:00 -4°C° 0.2 mm 3 mps 714 mmHg 95%
01:00 -4°C° 0.2 mm 3 mps 714 mmHg 95%
02:00 -4°C° 0.1 mm 3 mps 714 mmHg 95%
03:00 -4°C° 0.1 mm 3 mps 714 mmHg 94%
04:00 -3°C° 0.1 mm 2 mps 714 mmHg 94%
05:00 -3°C° 0.2 mm 2 mps 715 mmHg 95%
06:00 -3°C° 0.2 mm 2 mps 715 mmHg 96%
07:00 -3°C° 0.2 mm 2 mps 715 mmHg 97%
08:00 -2°C° 0.2 mm 2 mps 715 mmHg 95%
09:00 -2°C° 0.2 mm 2 mps 716 mmHg 94%
10:00 -2°C° 0.2 mm 2 mps 716 mmHg 92%
11:00 -1°C° 0 mm 2 mps 716 mmHg 91%
12:00 +1°C° 0 mm 2 mps 716 mmHg 91%
13:00 +1°C° 0 mm 2 mps 716 mmHg 90%
14:00 +1°C° 0 mm 2 mps 715 mmHg 90%
15:00 +1°C° 0 mm 2 mps 715 mmHg 91%
16:00 +2°C° 0 mm 1 mps 715 mmHg 92%
17:00 +1°C° 0 mm 1 mps 715 mmHg 93%
18:00 +1°C° 0 mm 1 mps 715 mmHg 94%
19:00 0°C° 0 mm 1 mps 715 mmHg 94%
20:00 0°C° 0.3 mm 1 mps 715 mmHg 95%
21:00 0°C° 0.3 mm 1 mps 715 mmHg 96%
22:00 +1°C° 0.3 mm 1 mps 714 mmHg 97%
23:00 -1°C° 0.2 mm 2 mps 714 mmHg 97%

27 January, Wednesday

Time Temperature Precipitation Wind Pressure Humidity
00:00 -1°C° 0.2 mm 2 mps 713 mmHg 96%
01:00 -1°C° 0.2 mm 3 mps 713 mmHg 96%
02:00 -1°C° 0.1 mm 3 mps 713 mmHg 97%
03:00 0°C° 0.1 mm 3 mps 712 mmHg 97%
04:00 +1°C° 0.1 mm 3 mps 712 mmHg 97%
05:00 0°C° 0.1 mm 4 mps 712 mmHg 97%
06:00 0°C° 0.1 mm 4 mps 712 mmHg 97%
07:00 +1°C° 0.1 mm 4 mps 713 mmHg 98%
08:00 +1°C° 0.2 mm 4 mps 713 mmHg 98%
09:00 +1°C° 0.2 mm 4 mps 714 mmHg 98%
10:00 +2°C° 0.2 mm 3 mps 715 mmHg 98%
11:00 +1°C° 0.1 mm 4 mps 715 mmHg 96%
12:00 +3°C° 0.1 mm 4 mps 716 mmHg 95%
13:00 +3°C° 0.1 mm 4 mps 716 mmHg 94%
14:00 +3°C° 0.1 mm 4 mps 716 mmHg 94%
15:00 +3°C° 0.1 mm 3 mps 716 mmHg 94%
16:00 +3°C° 0.1 mm 3 mps 717 mmHg 94%
17:00 +3°C° 0 mm 2 mps 717 mmHg 93%
18:00 +3°C° 0 mm 2 mps 717 mmHg 93%
19:00 +2°C° 0 mm 2 mps 718 mmHg 93%
20:00 +2°C° 0 mm 2 mps 718 mmHg 92%
21:00 +1°C° 0 mm 2 mps 718 mmHg 92%
22:00 +2°C° 0 mm 1 mps 718 mmHg 92%
23:00 +2°C° 0 mm 1 mps 717 mmHg 92%
Show more